{"data":{"norad_id":60138,"epoch":"2026-09-21T20:45:32.353920Z","epoch_age_seconds":64282,"freshness":"FRESH","line1":"1 60138U 24120D   26264.86495780 -.00000470  00000+0 -27764-5 0  9997","line2":"2 60138  53.1588 125.0097 0001378  91.0601 269.0559 15.34383940126465","mean_motion":15.3438394,"eccentricity":0.0001378,"inclination_deg":53.1588,"raan_deg":125.0097,"arg_perigee_deg":91.0601,"mean_anomaly_deg":269.0559,"bstar":-2.7764e-6,"rev_number":12646,"period_min":93.848740361555,"perigee_km":461.80829996508,"apogee_km":463.69364869081,"semimajor_km":6840.8879743279,"source":"CELESTRAK","updated_at":"2026-09-22T09:00:49.176866Z"}}